Regional Weather Roundup
Issued by NWS

Home | Current Version | Previous Version | Text Only | Print | Product List | Glossary Off
Versions: 1 2 3 4 5 6 7 8 9 10 11 12 13 14 15 16 17 18 19 20 21 22 23 24 25 26 27 28 29 30 31 32 33 34 35 36 37 38 39 40 41 42 43 44 45 46 47 48 49 50

000
ASUS44 KMEG 310510
RWRTN
TENNESSEE HOURLY STATE WEATHER ROUNDUP
NATIONAL WEATHER SERVICE MEMPHIS TN
1200 AM CDT WED AUG 31 2016

TNZ002-004-019-021-049-052-054-088>092-310600-
WEST TENNESSEE

CITY           SKY/WX    TMP DP  RH WIND       PRES   REMARKS
MEMPHIS INTL   CLEAR     84  71  65 NE7       30.00S
NWS MEMPHIS      N/A     80 N/A N/A MISG        N/A
JACKSON        CLEAR     75  74  96 CALM      30.01F
DYERSBURG      PTCLDY    77  72  83 MISG      30.02R
UNION CITY     CLEAR     73  73 100 CALM      30.02R
PARIS          CLEAR     73  72  94 CALM      30.04S
HUNTINGDON     CLEAR     75  73  94 CALM      30.01S
LEXINGTON      CLEAR     73  73 100 CALM      30.01S
$$

TNZ008-025-027-028-033-062-065-066-310600-
NORTH MIDDLE TENNESSEE

CITY           SKY/WX    TMP DP  RH WIND       PRES   REMARKS
NASHVILLE      CLEAR     80  73  79 CALM      30.03S
PORTLAND       CLEAR     75  73  94 CALM      30.04S
CLARKSVILLE    CLEAR     76  72  87 CALM      30.03S
COOKEVILLE     CLEAR     72  72 100 CALM      30.05S
GALLATIN       CLEAR     77  73  88 CALM      30.05S
CROSSVILLE     CLEAR     69  68  96 CALM      30.11S
$$

TNZ061-075-076-078-094-096-097-310600-
SOUTH MIDDLE TENNESSEE

CITY           SKY/WX    TMP DP  RH WIND       PRES   REMARKS
FAYETTEVILLE   CLOUDY    75  72  88 NE6       30.03S
TULLAHOMA      CLEAR     72  68  88 CALM      30.06S
WINCHESTER     CLEAR     70  70 100 CALM      30.04S
MCMINNVILLE    CLEAR     73  73 100 CALM      30.05S
COLUMBIA       CLEAR    N/A N/A N/A S3        30.02S
SHELBYVILLE    CLEAR     75  73  94 CALM      30.04S
$$

TNZ017-018-042-046-047-310600-
NORTHEAST TENNESSEE

CITY           SKY/WX    TMP DP  RH WIND       PRES   REMARKS
TRI CITIES     PTCLDY    69  67  93 N3        30.10R
ELIZABETHTON   CLEAR     70  66  88 E5        30.10R
$$

TNZ012-013-036-069-073-074-310600-
CENTRAL EAST TENNESSEE

CITY           SKY/WX    TMP DP  RH WIND       PRES   REMARKS
KNOXVILLE      CLEAR     76  68  76 SE3       30.03S
OAK RIDGE      CLEAR     75  69  81 CALM      30.06S
DOWNTOWN KNOXV CLEAR     73  72  94 CALM      30.04R
GATLINBURG     CLEAR     72  66  83 CALM      30.04S
MORRISTOWN     CLEAR     77  68  73 NE3       30.06S
JACKSBORO      CLEAR     70  68  94 CALM      30.09S
$$

TNZ083-085-099-310600-
SOUTHEAST TENNESSEE

CITY           SKY/WX    TMP DP  RH WIND       PRES   REMARKS
CHATTANOOGA    CLEAR     77  67  71 CALM      30.03S
$$

SKY/WX REPORTED AS FAIR MEANS FEW OR NO CLOUDS BELOW
12 THOUSAND FEET.





USA.gov is the U.S. government's official web portal to all federal, state and local government web resources and services.